Time,TemperatureF,DewpointF,PressureIn,WindDirection,WindDirectionDegrees,WindSpeedMPH,WindSpeedGustMPH,Humidity,HourlyPrecipIn,Conditions,Clouds,dailyrainin,SolarRadiationWatts/m^2,SoftwareType,DateUTC
2013-10-15 00:03:00,62.6,37.9,29.95,ESE,113,0.0,0.0,40,0.00,,,0.00,0000,Weather View 32 v70,2013-10-15 07:03:00,
2013-10-15 00:08:00,62.7,37.3,29.95,ESE,113,0.0,0.0,39,0.00,,,0.00,0000,Weather View 32 v70,2013-10-15 07:08:00,
2013-10-15 00:13:00,62.8,37.4,29.95,ESE,113,0.0,0.0,39,0.00,,,0.00,0000,Weather View 32 v70,2013-10-15 07:13:00,
2013-10-15 00:18:00,62.8,37.4,29.95,ESE,113,0.0,0.0,39,0.00,,,0.00,0000,Weather View 32 v70,2013-10-15 07:18:00,
2013-10-15 00:23:00,62.9,36.8,29.94,ESE,113,0.0,0.0,38,0.00,,,0.00,0000,Weather View 32 v70,2013-10-15 07:23:00,
2013-10-15 00:28:00,63.0,37.6,29.95,ESE,113,0.0,0.0,39,0.00,,,0.00,0000,Weather View 32 v70,2013-10-15 07:28:00,
2013-10-15 00:33:00,63.0,36.9,29.94,ESE,113,0.0,0.0,38,0.00,,,0.00,0000,Weather View 32 v70,2013-10-15 07:33:00,
2013-10-15 00:38:00,63.1,37.0,29.94,ESE,113,0.0,0.0,38,0.00,,,0.00,0000,Weather View 32 v70,2013-10-15 07:38:00,
2013-10-15 00:43:00,63.0,36.9,29.95,ESE,113,0.0,1.0,38,0.00,,,0.00,0000,Weather View 32 v70,2013-10-15 07:43:00,
2013-10-15 00:48:00,62.9,37.5,29.95,ESE,113,0.0,0.0,39,0.00,,,0.00,0000,Weather View 32 v70,2013-10-15 07:48:00,
2013-10-15 00:53:00,62.8,37.4,29.95,ESE,113,0.0,0.0,39,0.00,,,0.00,0000,Weather View 32 v70,2013-10-15 07:53:00,
2013-10-15 00:58:00,62.7,37.3,29.94,ESE,113,0.0,0.0,39,0.00,,,0.00,0000,Weather View 32 v70,2013-10-15 07:58:00,
2013-10-15 01:03:00,62.6,37.2,29.95,ESE,113,0.0,0.0,39,0.00,,,0.00,0000,Weather View 32 v70,2013-10-15 08:03:00,
2013-10-15 01:08:00,62.6,37.2,29.95,ESE,113,0.0,0.0,39,0.00,,,0.00,0000,Weather View 32 v70,2013-10-15 08:08:00,
2013-10-15 01:13:00,62.5,37.1,29.95,ESE,113,1.0,0.0,39,0.00,,,0.00,0000,Weather View 32 v70,2013-10-15 08:13:00,
2013-10-15 01:18:00,62.5,36.5,29.95,ESE,113,0.0,0.0,38,0.00,,,0.00,0000,Weather View 32 v70,2013-10-15 08:18:00,
2013-10-15 01:23:00,62.5,36.5,29.94,ESE,113,0.0,0.0,38,0.00,,,0.00,0000,Weather View 32 v70,2013-10-15 08:23:00,
2013-10-15 01:28:00,62.6,36.6,29.95,ESE,113,0.0,0.0,38,0.00,,,0.00,0000,Weather View 32 v70,2013-10-15 08:28:00,
2013-10-15 01:33:00,62.6,36.6,29.94,ESE,113,0.0,0.0,38,0.00,,,0.00,0000,Weather View 32 v70,2013-10-15 08:33:00,
2013-10-15 01:38:00,62.2,37.5,29.94,SE,140,0.0,0.0,40,0.00,,,0.00,0000,Weather View 32 v70,2013-10-15 08:38:00,
2013-10-15 01:43:00,61.9,37.3,29.94,SE,140,0.0,1.0,40,0.00,,,0.00,0000,Weather View 32 v70,2013-10-15 08:43:00,
2013-10-15 01:48:00,61.7,35.8,29.94,SE,140,0.0,0.0,38,0.00,,,0.00,0000,Weather View 32 v70,2013-10-15 08:48:00,
2013-10-15 01:53:00,61.6,36.3,29.94,SE,140,0.0,0.0,39,0.00,,,0.00,0000,Weather View 32 v70,2013-10-15 08:53:00,
2013-10-15 01:58:00,61.6,35.7,29.93,SE,140,0.0,1.0,38,0.00,,,0.00,0000,Weather View 32 v70,2013-10-15 08:58:00,
2013-10-15 02:03:00,61.5,35.6,29.93,SE,140,0.0,0.0,38,0.00,,,0.00,0000,Weather View 32 v70,2013-10-15 09:03:00,
2013-10-15 02:08:00,61.5,36.3,29.94,SE,140,0.0,0.0,39,0.00,,,0.00,0000,Weather View 32 v70,2013-10-15 09:08:00,
2013-10-15 02:13:00,61.4,36.2,29.93,SE,140,0.0,0.0,39,0.00,,,0.00,0000,Weather View 32 v70,2013-10-15 09:13:00,
2013-10-15 02:19:00,61.3,35.4,29.93,SE,140,0.0,0.0,38,0.00,,,0.00,0000,Weather View 32 v70,2013-10-15 09:19:00,
2013-10-15 02:24:00,61.1,35.2,29.93,SE,140,0.0,0.0,38,0.00,,,0.00,0000,Weather View 32 v70,2013-10-15 09:24:00,
2013-10-15 02:29:00,61.1,35.9,29.93,SE,140,0.0,0.0,39,0.00,,,0.00,0000,Weather View 32 v70,2013-10-15 09:29:00,
2013-10-15 02:34:00,61.0,35.8,29.92,SE,140,0.0,0.0,39,0.00,,,0.00,0000,Weather View 32 v70,2013-10-15 09:34:00,
2013-10-15 02:39:00,61.0,34.5,29.92,SE,140,0.0,0.0,37,0.00,,,0.00,0000,Weather View 32 v70,2013-10-15 09:39:00,
2013-10-15 02:44:00,60.9,35.1,29.92,SE,140,0.0,0.0,38,0.00,,,0.00,0000,Weather View 32 v70,2013-10-15 09:44:00,
2013-10-15 02:49:00,60.9,34.4,29.92,SE,140,0.0,0.0,37,0.00,,,0.00,0000,Weather View 32 v70,2013-10-15 09:49:00,
2013-10-15 02:54:00,61.0,35.2,29.92,SE,140,0.0,0.0,38,0.00,,,0.00,0000,Weather View 32 v70,2013-10-15 09:54:00,
2013-10-15 02:59:00,61.0,34.5,29.91,SE,140,0.0,0.0,37,0.00,,,0.00,0000,Weather View 32 v70,2013-10-15 09:59:00,
2013-10-15 03:04:00,61.1,35.2,29.91,SE,140,0.0,0.0,38,0.00,,,0.00,0000,Weather View 32 v70,2013-10-15 10:04:00,
2013-10-15 03:09:00,61.2,35.3,29.91,SE,140,0.0,0.0,38,0.00,,,0.00,0000,Weather View 32 v70,2013-10-15 10:09:00,
2013-10-15 03:14:00,61.3,34.7,29.91,SE,140,0.0,0.0,37,0.00,,,0.00,0000,Weather View 32 v70,2013-10-15 10:14:00,
2013-10-15 03:19:00,61.3,34.7,29.91,SE,140,0.0,1.0,37,0.00,,,0.00,0000,Weather View 32 v70,2013-10-15 10:19:00,
2013-10-15 03:24:00,61.4,34.8,29.91,SE,140,0.0,0.0,37,0.00,,,0.00,0000,Weather View 32 v70,2013-10-15 10:24:00,
2013-10-15 03:29:00,61.5,34.9,29.90,SE,140,0.0,0.0,37,0.00,,,0.00,0000,Weather View 32 v70,2013-10-15 10:29:00,
2013-10-15 03:34:00,61.4,34.8,29.91,SE,140,0.0,0.0,37,0.00,,,0.00,0000,Weather View 32 v70,2013-10-15 10:34:00,
2013-10-15 03:39:00,61.5,34.9,29.90,SE,140,0.0,0.0,37,0.00,,,0.00,0000,Weather View 32 v70,2013-10-15 10:39:00,
2013-10-15 03:44:00,61.5,34.9,29.90,SE,140,0.0,0.0,37,0.00,,,0.00,0000,Weather View 32 v70,2013-10-15 10:44:00,
2013-10-15 03:49:00,61.4,34.1,29.90,SE,140,0.0,0.0,36,0.00,,,0.00,0000,Weather View 32 v70,2013-10-15 10:49:00,
2013-10-15 03:54:00,61.3,34.1,29.90,SE,140,0.0,0.0,36,0.00,,,0.00,0000,Weather View 32 v70,2013-10-15 10:54:00,
2013-10-15 03:59:00,61.3,34.1,29.90,SE,140,0.0,0.0,36,0.00,,,0.00,0000,Weather View 32 v70,2013-10-15 10:59:00,
2013-10-15 04:04:00,61.2,34.0,29.90,SE,140,0.0,0.0,36,0.00,,,0.00,0000,Weather View 32 v70,2013-10-15 11:04:00,
2013-10-15 04:09:00,61.2,34.0,29.90,SE,140,0.0,0.0,36,0.00,,,0.00,0000,Weather View 32 v70,2013-10-15 11:09:00,
2013-10-15 04:14:00,61.2,34.0,29.90,SE,140,0.0,0.0,36,0.00,,,0.00,0000,Weather View 32 v70,2013-10-15 11:14:00,
2013-10-15 04:19:00,61.1,33.9,29.90,SE,140,0.0,0.0,36,0.00,,,0.00,0000,Weather View 32 v70,2013-10-15 11:19:00,
2013-10-15 04:24:00,61.1,33.9,29.90,SE,140,0.0,0.0,36,0.00,,,0.00,0000,Weather View 32 v70,2013-10-15 11:24:00,
2013-10-15 04:29:00,61.1,33.9,29.90,SE,140,0.0,0.0,36,0.00,,,0.00,0000,Weather View 32 v70,2013-10-15 11:29:00,
2013-10-15 04:34:00,61.0,33.8,29.90,SE,140,0.0,0.0,36,0.00,,,0.00,0000,Weather View 32 v70,2013-10-15 11:34:00,
2013-10-15 04:39:00,60.9,33.7,29.90,SE,140,0.0,0.0,36,0.00,,,0.00,0000,Weather View 32 v70,2013-10-15 11:39:00,
2013-10-15 04:44:00,60.9,33.0,29.90,SE,140,0.0,0.0,35,0.00,,,0.00,0000,Weather View 32 v70,2013-10-15 11:44:00,
2013-10-15 04:49:00,60.9,33.0,29.90,SE,140,0.0,0.0,35,0.00,,,0.00,0000,Weather View 32 v70,2013-10-15 11:49:00,
2013-10-15 04:54:00,60.9,33.7,29.90,SE,140,0.0,0.0,36,0.00,,,0.00,0000,Weather View 32 v70,2013-10-15 11:54:00,
2013-10-15 04:59:00,61.0,33.1,29.90,SE,140,0.0,0.0,35,0.00,,,0.00,0000,Weather View 32 v70,2013-10-15 11:59:00,
2013-10-15 05:04:00,61.0,33.1,29.90,SE,140,0.0,0.0,35,0.00,,,0.00,0000,Weather View 32 v70,2013-10-15 12:04:00,
2013-10-15 05:09:00,61.0,33.1,29.90,SE,140,0.0,0.0,35,0.00,,,0.00,0000,Weather View 32 v70,2013-10-15 12:09:00,
2013-10-15 05:14:00,60.9,33.0,29.90,SE,140,0.0,0.0,35,0.00,,,0.00,0000,Weather View 32 v70,2013-10-15 12:14:00,
2013-10-15 05:20:00,60.9,33.0,29.90,SE,140,0.0,0.0,35,0.00,,,0.00,0000,Weather View 32 v70,2013-10-15 12:20:00,
2013-10-15 05:25:00,60.8,32.9,29.91,SE,140,0.0,0.0,35,0.00,,,0.00,0000,Weather View 32 v70,2013-10-15 12:25:00,
2013-10-15 05:30:00,60.7,32.1,29.91,SE,140,0.0,0.0,34,0.00,,,0.00,0000,Weather View 32 v70,2013-10-15 12:30:00,
2013-10-15 05:35:00,60.6,32.0,29.91,SE,140,0.0,0.0,34,0.00,,,0.00,0000,Weather View 32 v70,2013-10-15 12:35:00,
2013-10-15 05:40:00,60.6,32.7,29.91,SE,140,0.0,0.0,35,0.00,,,0.00,0000,Weather View 32 v70,2013-10-15 12:40:00,
2013-10-15 05:45:00,60.6,32.0,29.91,SE,140,0.0,0.0,34,0.00,,,0.00,0000,Weather View 32 v70,2013-10-15 12:45:00,
2013-10-15 05:51:00,60.7,32.8,29.91,SE,140,0.0,0.0,35,0.00,,,0.00,0000,Weather View 32 v70,2013-10-15 12:51:00,
2013-10-15 05:56:00,60.7,32.8,29.91,SE,140,0.0,0.0,35,0.00,,,0.00,0000,Weather View 32 v70,2013-10-15 12:56:00,
2013-10-15 06:01:00,60.7,32.1,29.91,SE,140,0.0,0.0,34,0.00,,,0.00,0000,Weather View 32 v70,2013-10-15 13:01:00,
2013-10-15 06:06:00,60.7,32.8,29.91,SE,140,0.0,0.0,35,0.00,,,0.00,0000,Weather View 32 v70,2013-10-15 13:06:00,
2013-10-15 06:11:00,60.6,32.7,29.91,SE,140,0.0,0.0,35,0.00,,,0.00,0000,Weather View 32 v70,2013-10-15 13:11:00,
2013-10-15 06:16:00,60.4,32.6,29.91,SE,140,0.0,0.0,35,0.00,,,0.00,0000,Weather View 32 v70,2013-10-15 13:16:00,
2013-10-15 06:21:00,60.3,32.5,29.92,SE,140,0.0,0.0,35,0.00,,,0.00,0000,Weather View 32 v70,2013-10-15 13:21:00,
2013-10-15 06:26:00,60.1,32.3,29.92,SE,140,0.0,0.0,35,0.00,,,0.00,0000,Weather View 32 v70,2013-10-15 13:26:00,
2013-10-15 06:31:00,59.9,32.1,29.92,SE,140,0.0,0.0,35,0.00,,,0.00,0000,Weather View 32 v70,2013-10-15 13:31:00,
2013-10-15 06:36:00,59.8,32.0,29.92,SE,140,0.0,0.0,35,0.00,,,0.00,0000,Weather View 32 v70,2013-10-15 13:36:00,
2013-10-15 06:41:00,59.8,31.3,29.91,SE,140,0.0,0.0,34,0.00,,,0.00,0000,Weather View 32 v70,2013-10-15 13:41:00,
2013-10-15 06:46:00,59.8,31.3,29.92,SE,140,0.0,0.0,34,0.00,,,0.00,0000,Weather View 32 v70,2013-10-15 13:46:00,
2013-10-15 06:51:00,59.8,31.3,29.92,SE,140,0.0,0.0,34,0.00,,,0.00,0000,Weather View 32 v70,2013-10-15 13:51:00,
2013-10-15 06:56:00,59.9,31.4,29.92,SE,140,0.0,0.0,34,0.00,,,0.00,0000,Weather View 32 v70,2013-10-15 13:56:00,
2013-10-15 07:01:00,59.9,31.4,29.92,SE,140,0.0,0.0,34,0.00,,,0.00,0000,Weather View 32 v70,2013-10-15 14:01:00,
2013-10-15 07:06:00,60.0,31.5,29.92,SE,140,0.0,0.0,34,0.00,,,0.00,0005,Weather View 32 v70,2013-10-15 14:06:00,
2013-10-15 07:11:00,60.1,31.6,29.92,SE,140,0.0,0.0,34,0.00,,,0.00,0007,Weather View 32 v70,2013-10-15 14:11:00,
2013-10-15 07:16:00,60.2,30.9,29.92,SE,140,0.0,0.0,33,0.00,,,0.00,0023,Weather View 32 v70,2013-10-15 14:16:00,
2013-10-15 07:21:00,60.4,31.8,29.92,SE,140,0.0,0.0,34,0.00,,,0.00,0028,Weather View 32 v70,2013-10-15 14:21:00,
2013-10-15 07:26:00,60.5,31.2,29.93,SE,140,0.0,0.0,33,0.00,,,0.00,0032,Weather View 32 v70,2013-10-15 14:26:00,
2013-10-15 07:31:00,60.6,32.7,29.93,SE,140,0.0,0.0,35,0.00,,,0.00,0037,Weather View 32 v70,2013-10-15 14:31:00,
2013-10-15 07:36:00,60.8,33.6,29.93,SE,140,0.0,0.0,36,0.00,,,0.00,0040,Weather View 32 v70,2013-10-15 14:36:00,
2013-10-15 07:41:00,61.0,33.8,29.93,SE,140,0.0,0.0,36,0.00,,,0.00,0042,Weather View 32 v70,2013-10-15 14:41:00,
2013-10-15 07:46:00,61.2,34.7,29.93,SE,140,0.0,0.0,37,0.00,,,0.00,0046,Weather View 32 v70,2013-10-15 14:46:00,
2013-10-15 07:51:00,61.3,34.1,29.93,SE,140,0.0,0.0,36,0.00,,,0.00,0047,Weather View 32 v70,2013-10-15 14:51:00,
2013-10-15 07:56:00,61.6,35.0,29.93,SE,140,0.0,0.0,37,0.00,,,0.00,0049,Weather View 32 v70,2013-10-15 14:56:00,
2013-10-15 08:01:00,61.9,34.6,29.93,SE,140,0.0,0.0,36,0.00,,,0.00,0095,Weather View 32 v70,2013-10-15 15:01:00,
2013-10-15 08:06:00,62.1,35.5,29.94,SE,140,0.0,0.0,37,0.00,,,0.00,0081,Weather View 32 v70,2013-10-15 15:06:00,
2013-10-15 08:11:00,62.3,35.6,29.94,SE,140,0.0,0.0,37,0.00,,,0.00,0067,Weather View 32 v70,2013-10-15 15:11:00,
2013-10-15 08:16:00,62.5,35.1,29.94,SE,140,0.0,0.0,36,0.00,,,0.00,0077,Weather View 32 v70,2013-10-15 15:16:00,
2013-10-15 08:21:00,62.8,35.4,29.94,SE,140,0.0,0.0,36,0.00,,,0.00,0067,Weather View 32 v70,2013-10-15 15:21:00,
2013-10-15 08:26:00,63.4,35.2,29.94,SE,140,0.0,0.0,35,0.00,,,0.00,0084,Weather View 32 v70,2013-10-15 15:26:00,
2013-10-15 08:31:00,64.2,38.0,29.94,SE,140,0.0,0.0,38,0.00,,,0.00,0074,Weather View 32 v70,2013-10-15 15:31:00,
2013-10-15 08:36:00,64.9,39.3,29.94,SE,140,0.0,0.0,39,0.00,,,0.00,0069,Weather View 32 v70,2013-10-15 15:36:00,
2013-10-15 08:41:00,65.1,36.7,29.94,SE,140,0.0,0.0,35,0.00,,,0.00,0134,Weather View 32 v70,2013-10-15 15:41:00,
2013-10-15 08:46:00,65.3,36.9,29.94,SE,140,0.0,0.0,35,0.00,,,0.00,0134,Weather View 32 v70,2013-10-15 15:46:00,
2013-10-15 08:51:00,65.7,37.2,29.94,SE,140,0.0,0.0,35,0.00,,,0.00,0322,Weather View 32 v70,2013-10-15 15:51:00,
2013-10-15 08:56:00,66.6,37.3,29.94,SE,140,0.0,0.0,34,0.00,,,0.00,0244,Weather View 32 v70,2013-10-15 15:56:00,
2013-10-15 09:01:00,67.4,37.2,29.94,SE,140,0.0,0.0,33,0.00,,,0.00,0172,Weather View 32 v70,2013-10-15 16:01:00,
2013-10-15 09:06:00,68.2,37.9,29.94,SE,140,0.0,0.0,33,0.00,,,0.00,0276,Weather View 32 v70,2013-10-15 16:06:00,
2013-10-15 09:11:00,68.8,37.7,29.94,SE,140,0.0,1.0,32,0.00,,,0.00,0104,Weather View 32 v70,2013-10-15 16:11:00,
2013-10-15 09:16:00,69.4,39.0,29.94,SE,140,0.0,0.0,33,0.00,,,0.00,0299,Weather View 32 v70,2013-10-15 16:16:00,
2013-10-15 09:22:00,69.9,39.4,29.94,SE,140,0.0,0.0,33,0.00,,,0.00,0162,Weather View 32 v70,2013-10-15 16:22:00,
2013-10-15 09:27:00,70.3,38.2,29.94,SE,140,1.0,0.0,31,0.00,,,0.00,0278,Weather View 32 v70,2013-10-15 16:27:00,
2013-10-15 09:32:00,70.6,40.0,29.94,SE,140,0.0,0.0,33,0.00,,,0.00,0425,Weather View 32 v70,2013-10-15 16:32:00,
2013-10-15 09:37:00,71.3,39.0,29.94,SE,140,0.0,1.0,31,0.00,,,0.00,0468,Weather View 32 v70,2013-10-15 16:37:00,
2013-10-15 09:42:00,71.7,38.5,29.94,SE,140,0.0,1.0,30,0.00,,,0.00,0329,Weather View 32 v70,2013-10-15 16:42:00,
2013-10-15 09:47:00,72.0,39.6,29.94,SE,140,0.0,0.0,31,0.00,,,0.00,0306,Weather View 32 v70,2013-10-15 16:47:00,
2013-10-15 09:52:00,72.2,37.2,29.94,SE,140,0.0,0.0,28,0.00,,,0.00,0524,Weather View 32 v70,2013-10-15 16:52:00,
2013-10-15 09:57:00,72.8,38.6,29.94,SE,140,0.0,0.0,29,0.00,,,0.00,0541,Weather View 32 v70,2013-10-15 16:57:00,
2013-10-15 10:02:00,73.4,39.1,29.94,SE,140,0.0,0.0,29,0.00,,,0.00,0554,Weather View 32 v70,2013-10-15 17:02:00,
2013-10-15 10:07:00,74.1,39.7,29.94,SE,140,0.0,0.0,29,0.00,,,0.00,0570,Weather View 32 v70,2013-10-15 17:07:00,
2013-10-15 10:12:00,74.9,39.5,29.93,SE,140,0.0,0.0,28,0.00,,,0.00,0584,Weather View 32 v70,2013-10-15 17:12:00,
2013-10-15 10:17:00,75.5,40.9,29.93,SE,140,0.0,0.0,29,0.00,,,0.00,0592,Weather View 32 v70,2013-10-15 17:17:00,
2013-10-15 10:22:00,76.0,39.5,29.93,SE,140,0.0,1.0,27,0.00,,,0.00,0606,Weather View 32 v70,2013-10-15 17:22:00,
2013-10-15 10:27:00,76.7,40.1,29.93,SE,140,0.0,0.0,27,0.00,,,0.00,0619,Weather View 32 v70,2013-10-15 17:27:00,
2013-10-15 10:32:00,77.3,39.6,29.93,SE,140,0.0,0.0,26,0.00,,,0.00,0631,Weather View 32 v70,2013-10-15 17:32:00,
2013-10-15 10:37:00,77.8,40.1,29.93,SE,140,0.0,1.0,26,0.00,,,0.00,0642,Weather View 32 v70,2013-10-15 17:37:00,
2013-10-15 10:42:00,78.5,41.6,29.93,SE,140,0.0,0.0,27,0.00,,,0.00,0652,Weather View 32 v70,2013-10-15 17:42:00,
2013-10-15 10:47:00,78.7,40.8,29.93,SSE,157,0.0,0.0,26,0.00,,,0.00,0350,Weather View 32 v70,2013-10-15 17:47:00,
2013-10-15 10:52:00,78.9,37.9,29.93,SSE,157,0.0,0.0,23,0.00,,,0.00,0673,Weather View 32 v70,2013-10-15 17:52:00,
2013-10-15 10:57:00,79.2,39.2,29.92,SSE,157,0.0,0.0,24,0.00,,,0.00,0686,Weather View 32 v70,2013-10-15 17:57:00,
2013-10-15 11:02:00,79.3,38.2,29.92,NW,315,0.0,2.0,23,0.00,,,0.00,0694,Weather View 32 v70,2013-10-15 18:02:00,
2013-10-15 11:07:00,79.6,38.4,29.92,NW,315,0.0,1.0,23,0.00,,,0.00,0701,Weather View 32 v70,2013-10-15 18:07:00,
2013-10-15 11:12:00,80.1,37.7,29.92,NW,317,0.0,1.0,22,0.00,,,0.00,0712,Weather View 32 v70,2013-10-15 18:12:00,
2013-10-15 11:17:00,80.5,38.0,29.92,NW,317,0.0,0.0,22,0.00,,,0.00,0721,Weather View 32 v70,2013-10-15 18:17:00,
2013-10-15 11:22:00,80.7,38.2,29.92,NW,317,0.0,0.0,22,0.00,,,0.00,0657,Weather View 32 v70,2013-10-15 18:22:00,
2013-10-15 11:27:00,81.0,37.3,29.92,NW,317,0.0,0.0,21,0.00,,,0.00,0359,Weather View 32 v70,2013-10-15 18:27:00,
2013-10-15 11:32:00,81.2,37.4,29.92,NW,319,0.0,1.0,21,0.00,,,0.00,0244,Weather View 32 v70,2013-10-15 18:32:00,
2013-10-15 11:37:00,81.2,38.6,29.91,NW,320,0.0,0.0,22,0.00,,,0.00,0069,Weather View 32 v70,2013-10-15 18:37:00,
2013-10-15 11:42:00,81.4,38.8,29.91,NW,312,4.0,0.0,22,0.00,,,0.00,0058,Weather View 32 v70,2013-10-15 18:42:00,
2013-10-15 11:47:00,81.8,39.1,29.91,NW,308,0.0,0.0,22,0.00,,,0.00,0060,Weather View 32 v70,2013-10-15 18:47:00,
2013-10-15 11:52:00,82.0,38.1,29.91,NW,308,0.0,0.0,21,0.00,,,0.00,0058,Weather View 32 v70,2013-10-15 18:52:00,
2013-10-15 11:57:00,82.5,38.5,29.91,WNW,296,0.0,0.0,21,0.00,,,0.00,0058,Weather View 32 v70,2013-10-15 18:57:00,
2013-10-15 12:02:00,82.7,38.7,29.90,WNW,296,0.0,0.0,21,0.00,,,0.00,0058,Weather View 32 v70,2013-10-15 19:02:00,
2013-10-15 12:07:00,83.0,38.9,29.90,WNW,298,0.0,0.0,21,0.00,,,0.00,0060,Weather View 32 v70,2013-10-15 19:07:00,
2013-10-15 12:12:00,83.2,40.3,29.90,WNW,297,0.0,0.0,22,0.00,,,0.00,0074,Weather View 32 v70,2013-10-15 19:12:00,
2013-10-15 12:17:00,83.4,39.3,29.90,WNW,298,0.0,2.0,21,0.00,,,0.00,0062,Weather View 32 v70,2013-10-15 19:17:00,
2013-10-15 12:22:00,83.6,39.4,29.90,WNW,300,0.0,2.0,21,0.00,,,0.00,0088,Weather View 32 v70,2013-10-15 19:22:00,
2013-10-15 12:27:00,83.8,39.6,29.89,WNW,300,0.0,0.0,21,0.00,,,0.00,0091,Weather View 32 v70,2013-10-15 19:27:00,
2013-10-15 12:32:00,83.7,38.3,29.89,NW,304,0.0,2.0,20,0.00,,,0.00,0058,Weather View 32 v70,2013-10-15 19:32:00,
2013-10-15 12:37:00,84.0,39.8,29.90,NW,304,0.0,0.0,21,0.00,,,0.00,0058,Weather View 32 v70,2013-10-15 19:37:00,
2013-10-15 12:42:00,84.3,38.7,29.90,North,355,0.0,1.0,20,0.00,,,0.00,0058,Weather View 32 v70,2013-10-15 19:42:00,
2013-10-15 12:47:00,84.2,38.7,29.89,NNW,344,0.0,1.0,20,0.00,,,0.00,0149,Weather View 32 v70,2013-10-15 19:47:00,
2013-10-15 12:52:00,84.2,39.9,29.89,NW,314,0.0,3.0,21,0.00,,,0.00,0060,Weather View 32 v70,2013-10-15 19:52:00,
2013-10-15 12:57:00,84.3,40.0,29.89,NW,314,0.0,0.0,21,0.00,,,0.00,0062,Weather View 32 v70,2013-10-15 19:57:00,
2013-10-15 13:02:00,84.7,39.1,29.88,NW,313,0.0,1.0,20,0.00,,,0.00,0058,Weather View 32 v70,2013-10-15 20:02:00,
2013-10-15 13:07:00,84.7,40.3,29.88,NW,309,1.0,1.0,21,0.00,,,0.00,0058,Weather View 32 v70,2013-10-15 20:07:00,
2013-10-15 13:12:00,84.9,40.5,29.88,NNW,338,0.0,1.0,21,0.00,,,0.00,0060,Weather View 32 v70,2013-10-15 20:12:00,
2013-10-15 13:17:00,85.2,40.7,29.88,NNW,337,0.0,0.0,21,0.00,,,0.00,0062,Weather View 32 v70,2013-10-15 20:17:00,
2013-10-15 13:22:00,85.3,40.8,29.88,NNW,337,0.0,2.0,21,0.00,,,0.00,0060,Weather View 32 v70,2013-10-15 20:22:00,
2013-10-15 13:27:00,85.3,40.8,29.87,NNW,334,0.0,0.0,21,0.00,,,0.00,0060,Weather View 32 v70,2013-10-15 20:27:00,
2013-10-15 13:32:00,84.7,40.3,29.88,NNW,334,0.0,0.0,21,0.00,,,0.00,0060,Weather View 32 v70,2013-10-15 20:32:00,
2013-10-15 13:37:00,84.8,39.2,29.87,NNW,335,0.0,1.0,20,0.00,,,0.00,0072,Weather View 32 v70,2013-10-15 20:37:00,
2013-10-15 13:42:00,84.3,38.7,29.87,NW,326,0.0,2.0,20,0.00,,,0.00,0060,Weather View 32 v70,2013-10-15 20:42:00,
2013-10-15 13:47:00,84.1,39.8,29.87,West,279,2.0,0.0,21,0.00,,,0.00,0065,Weather View 32 v70,2013-10-15 20:47:00,
2013-10-15 13:52:00,84.5,40.2,29.87,NW,317,0.0,0.0,21,0.00,,,0.00,0058,Weather View 32 v70,2013-10-15 20:52:00,
2013-10-15 13:57:00,84.3,38.7,29.87,NW,317,0.0,0.0,20,0.00,,,0.00,0058,Weather View 32 v70,2013-10-15 20:57:00,
2013-10-15 14:02:00,84.7,39.1,29.87,NW,309,0.0,1.0,20,0.00,,,0.00,0058,Weather View 32 v70,2013-10-15 21:02:00,
2013-10-15 14:07:00,84.8,40.4,29.87,NW,319,0.0,1.0,21,0.00,,,0.00,0058,Weather View 32 v70,2013-10-15 21:07:00,
2013-10-15 14:12:00,85.0,39.3,29.87,NW,306,0.0,4.0,20,0.00,,,0.00,0058,Weather View 32 v70,2013-10-15 21:12:00,
2013-10-15 14:17:00,85.0,40.6,29.87,West,280,0.0,0.0,21,0.00,,,0.00,0058,Weather View 32 v70,2013-10-15 21:17:00,
2013-10-15 14:22:00,85.2,40.7,29.87,NW,308,0.0,5.0,21,0.00,,,0.00,0058,Weather View 32 v70,2013-10-15 21:22:00,
2013-10-15 14:27:00,85.0,39.3,29.87,NW,319,1.0,1.0,20,0.00,,,0.00,0056,Weather View 32 v70,2013-10-15 21:27:00,
2013-10-15 14:32:00,85.0,40.6,29.86,NNW,329,0.0,1.0,21,0.00,,,0.00,0056,Weather View 32 v70,2013-10-15 21:32:00,
2013-10-15 14:37:00,85.0,40.6,29.86,NW,310,0.0,2.0,21,0.00,,,0.00,0056,Weather View 32 v70,2013-10-15 21:37:00,
2013-10-15 14:42:00,85.2,41.9,29.86,West,281,0.0,1.0,22,0.00,,,0.00,0054,Weather View 32 v70,2013-10-15 21:42:00,
2013-10-15 14:47:00,85.0,39.3,29.86,WNW,289,0.0,0.0,20,0.00,,,0.00,0054,Weather View 32 v70,2013-10-15 21:47:00,
2013-10-15 14:52:00,84.2,38.7,29.86,NW,319,0.0,5.0,20,0.00,,,0.00,0054,Weather View 32 v70,2013-10-15 21:52:00,
2013-10-15 14:57:00,84.1,39.8,29.86,NNW,335,0.0,0.0,21,0.00,,,0.00,0054,Weather View 32 v70,2013-10-15 21:57:00,
2013-10-15 15:02:00,84.0,38.5,29.86,NW,311,0.0,1.0,20,0.00,,,0.00,0054,Weather View 32 v70,2013-10-15 22:02:00,
2013-10-15 15:07:00,83.8,38.3,29.86,NW,311,0.0,1.0,20,0.00,,,0.00,0053,Weather View 32 v70,2013-10-15 22:07:00,
2013-10-15 15:12:00,83.6,39.4,29.86,NW,315,0.0,1.0,21,0.00,,,0.00,0053,Weather View 32 v70,2013-10-15 22:12:00,
2013-10-15 15:17:00,83.8,39.6,29.86,NW,309,0.0,2.0,21,0.00,,,0.00,0053,Weather View 32 v70,2013-10-15 22:17:00,
2013-10-15 15:22:00,83.7,38.3,29.86,NW,319,0.0,1.0,20,0.00,,,0.00,0053,Weather View 32 v70,2013-10-15 22:22:00,
2013-10-15 15:27:00,83.2,39.1,29.86,NW,315,0.0,2.0,21,0.00,,,0.00,0051,Weather View 32 v70,2013-10-15 22:27:00,
2013-10-15 15:32:00,83.2,39.1,29.86,NW,315,0.0,2.0,21,0.00,,,0.00,0051,Weather View 32 v70,2013-10-15 22:32:00,
2013-10-15 15:37:00,83.0,38.9,29.86,NW,315,0.0,0.0,21,0.00,,,0.00,0060,Weather View 32 v70,2013-10-15 22:37:00,
2013-10-15 15:42:00,82.9,38.8,29.86,NW,315,0.0,1.0,21,0.00,,,0.00,0051,Weather View 32 v70,2013-10-15 22:42:00,
2013-10-15 15:47:00,82.9,38.8,29.86,NW,315,0.0,1.0,21,0.00,,,0.00,0049,Weather View 32 v70,2013-10-15 22:47:00,
2013-10-15 15:52:00,82.8,38.8,29.86,NW,315,0.0,1.0,21,0.00,,,0.00,0049,Weather View 32 v70,2013-10-15 22:52:00,
2013-10-15 15:57:00,82.6,38.6,29.86,NW,315,0.0,1.0,21,0.00,,,0.00,0049,Weather View 32 v70,2013-10-15 22:57:00,
2013-10-15 16:02:00,82.5,38.5,29.86,NW,315,0.0,0.0,21,0.00,,,0.00,0051,Weather View 32 v70,2013-10-15 23:02:00,
2013-10-15 16:07:00,82.5,38.5,29.86,NW,315,0.0,0.0,21,0.00,,,0.00,0047,Weather View 32 v70,2013-10-15 23:07:00,
2013-10-15 16:12:00,82.6,39.8,29.86,NW,315,0.0,0.0,22,0.00,,,0.00,0056,Weather View 32 v70,2013-10-15 23:12:00,
2013-10-15 16:17:00,82.3,38.3,29.86,NW,315,0.0,1.0,21,0.00,,,0.00,0046,Weather View 32 v70,2013-10-15 23:17:00,
2013-10-15 16:22:00,82.3,39.5,29.86,NW,307,0.0,0.0,22,0.00,,,0.00,0046,Weather View 32 v70,2013-10-15 23:22:00,
2013-10-15 16:27:00,81.9,38.0,29.86,NW,307,0.0,0.0,21,0.00,,,0.00,0044,Weather View 32 v70,2013-10-15 23:27:00,
2013-10-15 16:33:00,81.8,37.9,29.86,NW,307,0.0,0.0,21,0.00,,,0.00,0046,Weather View 32 v70,2013-10-15 23:33:00,
2013-10-15 16:38:00,81.6,37.8,29.86,NW,326,1.0,0.0,21,0.00,,,0.00,0104,Weather View 32 v70,2013-10-15 23:38:00,
2013-10-15 16:43:00,81.5,37.7,29.86,WNW,298,0.0,1.0,21,0.00,,,0.00,0051,Weather View 32 v70,2013-10-15 23:43:00,
2013-10-15 16:48:00,81.3,39.9,29.86,WNW,299,0.0,0.0,23,0.00,,,0.00,0039,Weather View 32 v70,2013-10-15 23:48:00,
2013-10-15 16:53:00,81.3,38.7,29.86,WNW,299,0.0,1.0,22,0.00,,,0.00,0035,Weather View 32 v70,2013-10-15 23:53:00,
2013-10-15 16:58:00,81.1,38.5,29.87,WNW,299,0.0,0.0,22,0.00,,,0.00,0033,Weather View 32 v70,2013-10-15 23:58:00,
2013-10-15 17:03:00,80.9,37.2,29.87,WNW,299,0.0,0.0,21,0.00,,,0.00,0032,Weather View 32 v70,2013-10-16 00:03:00,
2013-10-15 17:08:00,80.7,37.0,29.87,WNW,299,0.0,0.0,21,0.00,,,0.00,0030,Weather View 32 v70,2013-10-16 00:08:00,
2013-10-15 17:13:00,80.5,38.0,29.87,WNW,299,0.0,0.0,22,0.00,,,0.00,0028,Weather View 32 v70,2013-10-16 00:13:00,
2013-10-15 17:18:00,80.1,38.9,29.87,WNW,299,0.0,0.0,23,0.00,,,0.00,0026,Weather View 32 v70,2013-10-16 00:18:00,
2013-10-15 17:23:00,79.6,37.3,29.87,WNW,300,0.0,0.0,22,0.00,,,0.00,0025,Weather View 32 v70,2013-10-16 00:23:00,
2013-10-15 17:28:00,79.2,37.0,29.87,WNW,300,0.0,1.0,22,0.00,,,0.00,0023,Weather View 32 v70,2013-10-16 00:28:00,
2013-10-15 17:33:00,78.9,36.7,29.87,WNW,300,0.0,0.0,22,0.00,,,0.00,0021,Weather View 32 v70,2013-10-16 00:33:00,
2013-10-15 17:38:00,78.7,37.7,29.87,WNW,300,0.0,0.0,23,0.00,,,0.00,0019,Weather View 32 v70,2013-10-16 00:38:00,
2013-10-15 17:43:00,78.3,37.4,29.87,WNW,301,0.0,0.0,23,0.00,,,0.00,0016,Weather View 32 v70,2013-10-16 00:43:00,
2013-10-15 17:48:00,77.9,37.0,29.88,WNW,300,0.0,0.0,23,0.00,,,0.00,0016,Weather View 32 v70,2013-10-16 00:48:00,
2013-10-15 17:53:00,77.5,37.8,29.88,WNW,302,0.0,0.0,24,0.00,,,0.00,0014,Weather View 32 v70,2013-10-16 00:53:00,
2013-10-15 17:58:00,77.3,37.6,29.88,WNW,302,0.0,0.0,24,0.00,,,0.00,0012,Weather View 32 v70,2013-10-16 00:58:00,
2013-10-15 18:03:00,77.0,38.4,29.88,WNW,302,0.0,0.0,25,0.00,,,0.00,0011,Weather View 32 v70,2013-10-16 01:03:00,
2013-10-15 18:08:00,76.9,37.3,29.88,NW,309,0.0,1.0,24,0.00,,,0.00,0009,Weather View 32 v70,2013-10-16 01:08:00,
2013-10-15 18:13:00,76.8,37.2,29.88,NW,309,0.0,0.0,24,0.00,,,0.00,0007,Weather View 32 v70,2013-10-16 01:13:00,
2013-10-15 18:18:00,76.6,37.0,29.89,NW,309,0.0,0.0,24,0.00,,,0.00,0005,Weather View 32 v70,2013-10-16 01:18:00,
2013-10-15 18:23:00,76.4,36.8,29.89,NW,309,0.0,0.0,24,0.00,,,0.00,0000,Weather View 32 v70,2013-10-16 01:23:00,
2013-10-15 18:28:00,76.1,36.6,29.89,NW,309,0.0,0.0,24,0.00,,,0.00,0000,Weather View 32 v70,2013-10-16 01:28:00,
2013-10-15 18:33:00,75.8,36.3,29.89,NW,309,0.0,0.0,24,0.00,,,0.00,0000,Weather View 32 v70,2013-10-16 01:33:00,
2013-10-15 18:38:00,75.3,37.0,29.89,NW,309,0.0,0.0,25,0.00,,,0.00,0000,Weather View 32 v70,2013-10-16 01:38:00,
2013-10-15 18:43:00,74.8,36.5,29.90,NW,309,0.0,0.0,25,0.00,,,0.00,0000,Weather View 32 v70,2013-10-16 01:43:00,
2013-10-15 18:48:00,74.3,36.1,29.90,NW,309,0.0,0.0,25,0.00,,,0.00,0000,Weather View 32 v70,2013-10-16 01:48:00,
2013-10-15 18:53:00,73.9,35.8,29.90,NW,309,0.0,0.0,25,0.00,,,0.00,0000,Weather View 32 v70,2013-10-16 01:53:00,
2013-10-15 18:58:00,73.6,35.5,29.90,NW,309,0.0,0.0,25,0.00,,,0.00,0000,Weather View 32 v70,2013-10-16 01:58:00,
2013-10-15 19:03:00,73.2,35.2,29.90,NW,309,0.0,0.0,25,0.00,,,0.00,0000,Weather View 32 v70,2013-10-16 02:03:00,
2013-10-15 19:08:00,72.9,35.9,29.90,NW,309,0.0,0.0,26,0.00,,,0.00,0000,Weather View 32 v70,2013-10-16 02:08:00,
2013-10-15 19:13:00,72.5,35.6,29.91,NW,309,0.0,0.0,26,0.00,,,0.00,0000,Weather View 32 v70,2013-10-16 02:13:00,
2013-10-15 19:18:00,72.1,35.2,29.91,NW,309,0.0,0.0,26,0.00,,,0.00,0000,Weather View 32 v70,2013-10-16 02:18:00,
2013-10-15 19:23:00,71.8,35.9,29.91,NW,309,0.0,0.0,27,0.00,,,0.00,0000,Weather View 32 v70,2013-10-16 02:23:00,
2013-10-15 19:28:00,71.4,36.5,29.91,NW,309,0.0,0.0,28,0.00,,,0.00,0000,Weather View 32 v70,2013-10-16 02:28:00,
2013-10-15 19:33:00,71.1,36.3,29.92,NW,309,0.0,1.0,28,0.00,,,0.00,0000,Weather View 32 v70,2013-10-16 02:33:00,
2013-10-15 19:38:00,70.8,36.0,29.92,NW,309,0.0,0.0,28,0.00,,,0.00,0000,Weather View 32 v70,2013-10-16 02:38:00,
2013-10-15 19:43:00,70.5,35.7,29.92,NW,309,0.0,0.0,28,0.00,,,0.00,0000,Weather View 32 v70,2013-10-16 02:43:00,
2013-10-15 19:48:00,70.2,35.5,29.91,NW,309,0.0,0.0,28,0.00,,,0.00,0000,Weather View 32 v70,2013-10-16 02:48:00,
2013-10-15 19:53:00,70.0,35.3,29.92,NW,309,0.0,0.0,28,0.00,,,0.00,0000,Weather View 32 v70,2013-10-16 02:53:00,
2013-10-15 19:58:00,69.9,35.2,29.92,NW,309,0.0,0.0,28,0.00,,,0.00,0000,Weather View 32 v70,2013-10-16 02:58:00,
2013-10-15 20:03:00,69.8,35.1,29.92,NW,309,0.0,0.0,28,0.00,,,0.00,0000,Weather View 32 v70,2013-10-16 03:03:00,
2013-10-15 20:08:00,69.7,35.9,29.92,NW,309,0.0,0.0,29,0.00,,,0.00,0000,Weather View 32 v70,2013-10-16 03:08:00,
2013-10-15 20:13:00,69.5,34.9,29.92,NW,309,0.0,0.0,28,0.00,,,0.00,0000,Weather View 32 v70,2013-10-16 03:13:00,
2013-10-15 20:18:00,69.4,35.7,29.93,NW,309,0.0,0.0,29,0.00,,,0.00,0000,Weather View 32 v70,2013-10-16 03:18:00,
2013-10-15 20:23:00,69.3,34.7,29.93,NW,309,0.0,0.0,28,0.00,,,0.00,0000,Weather View 32 v70,2013-10-16 03:23:00,
2013-10-15 20:28:00,69.1,34.5,29.93,NW,309,0.0,0.0,28,0.00,,,0.00,0000,Weather View 32 v70,2013-10-16 03:28:00,
2013-10-15 20:33:00,68.9,35.3,29.93,NW,309,0.0,0.0,29,0.00,,,0.00,0000,Weather View 32 v70,2013-10-16 03:33:00,
2013-10-15 20:38:00,68.7,35.1,29.93,NW,309,0.0,0.0,29,0.00,,,0.00,0000,Weather View 32 v70,2013-10-16 03:38:00,
2013-10-15 20:43:00,68.5,34.9,29.93,NW,309,0.0,0.0,29,0.00,,,0.00,0000,Weather View 32 v70,2013-10-16 03:43:00,
2013-10-15 20:48:00,68.3,34.7,29.93,NW,309,0.0,0.0,29,0.00,,,0.00,0000,Weather View 32 v70,2013-10-16 03:48:00,
2013-10-15 20:53:00,68.0,35.3,29.93,NW,309,0.0,0.0,30,0.00,,,0.00,0000,Weather View 32 v70,2013-10-16 03:53:00,
2013-10-15 20:58:00,67.8,34.3,29.93,NW,309,0.0,0.0,29,0.00,,,0.00,0000,Weather View 32 v70,2013-10-16 03:58:00,
2013-10-15 21:07:00,67.3,34.7,29.94,NW,309,0.0,0.0,30,0.00,,,0.00,0000,Weather View 32 v70,2013-10-16 04:07:00,
2013-10-15 21:12:00,67.0,34.5,29.94,NW,309,0.0,0.0,30,0.00,,,0.00,0000,Weather View 32 v70,2013-10-16 04:12:00,
2013-10-15 21:17:00,66.6,34.1,29.94,NW,309,0.0,0.0,30,0.00,,,0.00,0000,Weather View 32 v70,2013-10-16 04:17:00,
2013-10-15 21:22:00,66.5,34.0,29.94,NW,309,0.0,0.0,30,0.00,,,0.00,0000,Weather View 32 v70,2013-10-16 04:22:00,
2013-10-15 21:27:00,66.3,33.9,29.94,NW,309,0.0,0.0,30,0.00,,,0.00,0000,Weather View 32 v70,2013-10-16 04:27:00,
2013-10-15 21:32:00,66.1,34.5,29.95,NW,309,0.0,0.0,31,0.00,,,0.00,0000,Weather View 32 v70,2013-10-16 04:32:00,
2013-10-15 21:37:00,65.8,34.3,29.95,NW,309,0.0,0.0,31,0.00,,,0.00,0000,Weather View 32 v70,2013-10-16 04:37:00,
2013-10-15 21:42:00,65.6,33.3,29.95,NW,309,0.0,0.0,30,0.00,,,0.00,0000,Weather View 32 v70,2013-10-16 04:42:00,
2013-10-15 21:47:00,65.5,34.0,29.95,NW,309,0.0,0.0,31,0.00,,,0.00,0000,Weather View 32 v70,2013-10-16 04:47:00,
2013-10-15 21:52:00,65.3,33.8,29.95,NW,309,0.0,0.0,31,0.00,,,0.00,0000,Weather View 32 v70,2013-10-16 04:52:00,
2013-10-15 21:57:00,65.2,33.7,29.96,NW,309,0.0,0.0,31,0.00,,,0.00,0000,Weather View 32 v70,2013-10-16 04:57:00,
2013-10-15 22:02:00,65.0,33.6,29.96,NW,309,0.0,0.0,31,0.00,,,0.00,0000,Weather View 32 v70,2013-10-16 05:02:00,
2013-10-15 22:07:00,64.9,33.5,29.96,NW,309,0.0,0.0,31,0.00,,,0.00,0000,Weather View 32 v70,2013-10-16 05:07:00,
2013-10-15 22:12:00,64.9,33.5,29.96,NW,309,0.0,0.0,31,0.00,,,0.00,0000,Weather View 32 v70,2013-10-16 05:12:00,
2013-10-15 22:17:00,64.8,33.4,29.96,NW,309,0.0,0.0,31,0.00,,,0.00,0000,Weather View 32 v70,2013-10-16 05:17:00,
2013-10-15 22:22:00,64.8,33.4,29.96,NW,309,0.0,0.0,31,0.00,,,0.00,0000,Weather View 32 v70,2013-10-16 05:22:00,
2013-10-15 22:27:00,64.8,33.4,29.96,NW,309,0.0,0.0,31,0.00,,,0.00,0000,Weather View 32 v70,2013-10-16 05:27:00,
2013-10-15 22:32:00,64.8,33.4,29.95,NW,309,0.0,0.0,31,0.00,,,0.00,0000,Weather View 32 v70,2013-10-16 05:32:00,
2013-10-15 22:37:00,64.9,33.5,29.96,NW,309,0.0,0.0,31,0.00,,,0.00,0000,Weather View 32 v70,2013-10-16 05:37:00,
2013-10-15 22:42:00,64.8,33.4,29.96,NW,309,0.0,0.0,31,0.00,,,0.00,0000,Weather View 32 v70,2013-10-16 05:42:00,
2013-10-15 22:47:00,64.8,33.4,29.96,NW,309,0.0,0.0,31,0.00,,,0.00,0000,Weather View 32 v70,2013-10-16 05:47:00,
2013-10-15 22:52:00,64.6,33.2,29.96,NW,309,0.0,0.0,31,0.00,,,0.00,0000,Weather View 32 v70,2013-10-16 05:52:00,
2013-10-15 22:57:00,64.5,33.1,29.95,NW,309,0.0,0.0,31,0.00,,,0.00,0000,Weather View 32 v70,2013-10-16 05:57:00,
2013-10-15 23:02:00,64.4,33.0,29.95,NW,309,0.0,0.0,31,0.00,,,0.00,0000,Weather View 32 v70,2013-10-16 06:02:00,
2013-10-15 23:07:00,63.9,34.9,29.96,NW,309,0.0,1.0,34,0.00,,,0.00,0000,Weather View 32 v70,2013-10-16 06:07:00,
2013-10-15 23:12:00,63.6,34.7,29.96,NW,309,0.0,1.0,34,0.00,,,0.00,0000,Weather View 32 v70,2013-10-16 06:12:00,
2013-10-15 23:17:00,63.4,33.0,29.95,NW,309,0.0,0.0,32,0.00,,,0.00,0000,Weather View 32 v70,2013-10-16 06:17:00,
2013-10-15 23:22:00,63.2,32.0,29.95,NW,309,0.0,0.0,31,0.00,,,0.00,0000,Weather View 32 v70,2013-10-16 06:22:00,
2013-10-15 23:27:00,63.2,32.0,29.96,NW,309,0.0,0.0,31,0.00,,,0.00,0000,Weather View 32 v70,2013-10-16 06:27:00,
2013-10-15 23:32:00,63.5,32.3,29.96,NW,309,0.0,0.0,31,0.00,,,0.00,0000,Weather View 32 v70,2013-10-16 06:32:00,
2013-10-15 23:37:00,63.7,32.4,29.96,NW,309,0.0,0.0,31,0.00,,,0.00,0000,Weather View 32 v70,2013-10-16 06:37:00,
2013-10-15 23:42:00,63.6,33.1,29.96,WSW,254,0.0,0.0,32,0.00,,,0.00,0000,Weather View 32 v70,2013-10-16 06:42:00,
2013-10-15 23:47:00,63.3,35.1,29.97,WSW,253,0.0,0.0,35,0.00,,,0.00,0000,Weather View 32 v70,2013-10-16 06:47:00,
2013-10-15 23:52:00,63.0,33.4,29.96,WSW,253,0.0,0.0,33,0.00,,,0.00,0000,Weather View 32 v70,2013-10-16 06:52:00,
2013-10-15 23:57:00,63.0,31.8,29.97,WSW,254,0.0,1.0,31,0.00,,,0.00,0000,Weather View 32 v70,2013-10-16 06:57:00,